Fresno, CA

1:45 PM PST on November 12, 2019 (GMT -0800)
Fresno Yosemite International

Weather History for KFAT - September, 2019

Change the Weather History Date:

Monday, September 9, 2019

  Actual Average Record
Temperature  
Mean Temperature 75 °F 78 °F  
Max Temperature 87 °F 93 °F 107 °F (1904)
Min Temperature 62 °F 63 °F 50 °F (1964)
Degree Days  
Heating Degree Days 0    
Month to date heating degree days 0  
Since 1 July heating degree days 0  
Cooling Degree Days 10    
Month to date cooling degree days 167  
Year to date cooling degree days 2108  
Growing Degree Days 24 (Base 50)    
Moisture  
Dew Point 50 °F    
Average Humidity 48    
Maximum Humidity 72    
Minimum Humidity 24    
Precipitation  
Precipitation 0.00 in 0.00 in 0.02 in (1960)
Month to date precipitation 0.00 0.02  
Year to date precipitation 9.52 7.88  
Snow  
Snow 0.00 in - - ()
Month to date snowfall 0.0  
Since 1 July snowfall 0.0  
Since 1 September snowfall 0.0  
Snow Depth 0.00 in    
Sea Level Pressure  
Sea Level Pressure 29.88 in    
Wind  
Wind Speed 9 mph (NW)    
Max Wind Speed 18 mph    
Max Gust Speed 23 mph    
Visibility 10 miles    
Events      
T = Trace of Precipitation, MM = Missing Value Source: NWS Daily Summary

Daily Weather History Graph

Daily Weather History Graph

Search for Another Location

Airport or City:

Astronomy

Sep. 09, 2019 Rise Set
Actual Time 6:36 AM PDT 7:15 PM PDT
Civil Twilight 6:10 AM PDT 7:41 PM PDT
Nautical Twilight 5:39 AM PDT 8:12 PM PDT
Astronomical Twilight 5:07 AM PDT 8:44 PM PDT
Moon 5:07 PM PDT (9/9) 2:19 AM PDT (9/9)
Length of Visible Light 13h 31m
Length of Day
12h 39m
Waxing Gibbous, 83% of the Moon is Illuminated
Sep 9
Waxing Gibbous
Sep 13
Full
Sep 21
Last Quarter
Sep 28
New
Oct 5
First Quarter

Hourly Weather History & Observations

Time (PDT) Temp. Dew Point Humidity Pressure Visibility Wind Dir Wind Speed Gust Speed Precip Events Conditions
12:53 AM 69.1 °F 54.0 °F 58% 29.91 in 10.0 mi NNW 6.9 mph - N/A   Clear
1:53 AM 68.0 °F 54.0 °F 61% 29.91 in 10.0 mi NNW 8.1 mph - N/A   Clear
2:53 AM 66.9 °F 53.1 °F 61% 29.91 in 10.0 mi NW 8.1 mph - N/A   Clear
3:53 AM 64.9 °F 53.1 °F 65% 29.90 in 10.0 mi NW 5.8 mph - N/A   Clear
4:53 AM 64.0 °F 52.0 °F 65% 29.90 in 10.0 mi NNW 4.6 mph - N/A   Clear
5:53 AM 63.0 °F 53.1 °F 70% 29.90 in 10.0 mi NNW 3.5 mph - N/A   Clear
6:53 AM 63.0 °F 53.1 °F 70% 29.92 in 10.0 mi NW 4.6 mph - N/A   Clear
7:53 AM 64.9 °F 53.1 °F 65% 29.94 in 8.0 mi North 5.8 mph - N/A   Clear
8:53 AM 69.1 °F 53.1 °F 57% 29.94 in 9.0 mi NNW 5.8 mph - N/A   Clear
9:53 AM 73.0 °F 53.1 °F 49% 29.93 in 10.0 mi WNW 3.5 mph - N/A   Partly Cloudy
10:53 AM 75.9 °F 53.1 °F 45% 29.93 in 10.0 mi WNW 4.6 mph - N/A   Partly Cloudy
11:53 AM 80.1 °F 51.1 °F 36% 29.91 in 10.0 mi WNW 4.6 mph - N/A   Partly Cloudy
12:53 PM 81.0 °F 48.9 °F 33% 29.90 in 10.0 mi West 8.1 mph - N/A   Partly Cloudy
1:53 PM 84.0 °F 46.9 °F 27% 29.87 in 10.0 mi WNW 4.6 mph - N/A   Partly Cloudy
2:53 PM 82.9 °F 44.1 °F 25% 29.85 in 10.0 mi WNW 8.1 mph - N/A   Partly Cloudy
3:53 PM 86.0 °F 46.9 °F 26% 29.83 in 10.0 mi NNW 12.7 mph - N/A   Partly Cloudy
4:53 PM 84.0 °F 46.0 °F 26% 29.82 in 10.0 mi WNW 9.2 mph - N/A   Partly Cloudy
5:53 PM 82.9 °F 43.0 °F 24% 29.82 in 10.0 mi WNW 12.7 mph - N/A   Partly Cloudy
6:53 PM 82.0 °F 45.0 °F 27% 29.81 in 10.0 mi NW 13.8 mph - N/A   Clear
7:53 PM 80.1 °F 46.0 °F 30% 29.81 in 10.0 mi NW 10.4 mph - N/A   Clear
8:53 PM 78.1 °F 50.0 °F 37% 29.82 in 10.0 mi WNW 11.5 mph - N/A   Clear
9:53 PM 75.0 °F 48.0 °F 38% 29.82 in 10.0 mi WNW 12.7 mph - N/A   Clear
10:53 PM 73.0 °F 50.0 °F 44% 29.83 in 10.0 mi WNW 11.5 mph - N/A   Clear
11:53 PM 71.1 °F 52.0 °F 51% 29.84 in 10.0 mi NW 16.1 mph - N/A   Clear